Flag for Netherlands Weather past 2 weeks in Apeldoorn, Netherlands

Now
55 °F

Fog.


Feels Like: 55 °F
Forecast: 47 / 61 °F
Wind: 5 mph from Northwest

Location: Deelen

Current Time: Sep 22, 2014 at 1:01:48 AM

Latest Report: Sep 22, 2014 at 12:25 AM


Visibility: 5 mi

Pressure: 30.12 "Hg

Humidity: 94%

Dew point: 54 °F

Location of ApeldoornLocation

Historic Weather in Apeldoorn — Graph

°F

Apeldoorn temperature yesterday

Maximum temperature yesterday: 64 °F (at 1:25 PM)
Minimum temperature yesterday: 54 °F (at 9:55 PM)
Average temperature yesterday: 59 °F

Past Weeks' High & Low Weather Summary

 TemperatureHumidityPressure
High77 °F (Sep 17, 2:55 PM)100% (Sep 6, 11:55 PM)30.27 "Hg (Sep 6, 11:55 PM)
Low45 °F (Sep 12, 6:25 AM)43% (Sep 8, 4:55 PM)29.83 "Hg (Sep 18, 5:25 AM)
Average61 °F84%30.04 "Hg
* Reported Sep 6 11:25 PM — Sep 21 11:55 PM, Apeldoorn, Weather by CustomWeather, © 2014

Note: Actual official high and low records may vary slightly from our data, if they occured in-between our weather recording intervals... More about our weather records

Advertising

Apeldoorn weather history for previous 24 hours

 ConditionsComfort  
Time TempWeatherWind HumidityBarometerVisibility
11:55 PM
Sep 21
55 °FFog.7 mph94%30.12 "Hg6 mi
11:25 PM55 °FRain showers. Partly cloudy.7 mph94%30.12 "Hg3 mi
10:55 PM54 °FPassing clouds.6 mph94%30.12 "HgN/A
10:25 PM55 °FMostly cloudy.6 mph94%30.12 "HgN/A
9:55 PM54 °FPassing clouds.5 mph94%30.12 "HgN/A
9:25 PM55 °FPassing clouds.6 mph88%30.09 "HgN/A
8:55 PM57 °FPartly cloudy.9 mph82%30.09 "HgN/A
8:25 PM55 °FCool.7 mph88%30.09 "HgN/A
7:55 PM57 °FBroken clouds.6 mph77%30.09 "HgN/A
7:25 PM57 °FPassing clouds.9 mph77%30.09 "HgN/A
6:55 PM59 °FPassing clouds.10 mph72%30.09 "HgN/A
6:25 PM59 °FCool.12 mph77%30.07 "HgN/A
5:55 PM57 °FCool.9 mph88%30.07 "HgN/A
5:25 PM57 °FDrizzle. Broken clouds.9 mph88%30.07 "HgN/A
4:55 PM59 °FPartly sunny.14 mph72%30.07 "HgN/A
4:25 PM61 °FBroken clouds.17 mph68%30.07 "HgN/A
3:55 PM63 °FBroken clouds.13 mph68%30.07 "HgN/A
3:25 PM61 °FPartly sunny.15 mph72%30.07 "HgN/A
2:55 PM63 °FPassing clouds.17 mph64%30.07 "HgN/A
2:25 PM64 °FBroken clouds.17 mph56%30.07 "HgN/A
1:55 PM64 °FScattered clouds.16 mph52%30.07 "HgN/A
1:25 PM64 °FScattered clouds.17 mph60%30.04 "HgN/A
12:55 PM63 °FScattered clouds.15 mph59%30.04 "HgN/A
12:25 PM63 °FScattered clouds.16 mph64%30.04 "HgN/A
11:55 AM63 °FPartly sunny.13 mph68%30.04 "HgN/A
11:25 AM63 °FPartly sunny.12 mph73%30.04 "HgN/A
10:55 AM63 °FBroken clouds.16 mph77%30.04 "HgN/A
10:25 AM59 °FPartly sunny.9 mph88%30.04 "HgN/A
9:55 AM59 °FMostly cloudy.7 mph94%30.04 "HgN/A
9:25 AM59 °FMostly cloudy.9 mph88%30.01 "HgN/A
8:55 AM59 °FOvercast.8 mph94%30.01 "HgN/A
8:25 AM59 °FBroken clouds.13 mph94%30.01 "HgN/A
7:55 AM59 °FPartly cloudy.10 mph100%29.98 "Hg4 mi
7:25 AM59 °FPartly cloudy.6 mph100%29.98 "Hg4 mi
6:55 AM59 °FLight rain. Partly cloudy.5 mph100%29.98 "Hg4 mi
6:25 AM59 °FRain showers. Partly cloudy.10 mph94%29.98 "Hg2 mi
5:55 AM61 °FFog.3 mph100%29.98 "Hg2 mi
5:25 AM61 °FFog.3 mph94%29.98 "Hg2 mi
4:55 AM61 °FFog.6 mph94%29.98 "Hg2 mi
4:25 AM59 °FFog.3 mph100%29.98 "Hg2 mi
3:55 AM59 °FFog.2 mph100%29.98 "Hg1 mi
3:25 AM59 °FFog.2 mph100%29.98 "Hg1 mi
2:55 AM59 °FFog.3 mph100%29.98 "Hg1 mi
1:55 AM59 °FFog.2 mph100%29.98 "Hg1 mi
1:25 AM61 °FFog.2 mph94%29.98 "Hg2 mi
Weather by CustomWeather, © 2014

See weather overviewHow to use our weather pages